StationID,Date,MaxTemp,MinTemp,Precipitation,Snowfall,SnowDepth
"USC00500286","2000-10-12",50.00,33.08,0.00,0.00,0.00
"USC00500286","2000-10-13",48.92,33.98,0.00,0.00,0.00
"USC00500286","2000-10-14",46.94,37.04,0.00,0.00,0.00
"USC00500286","2000-10-15",46.04,,0.00,0.00,0.00
"USC00500286","2000-10-16",46.94,33.08,0.00,0.00,0.00
"USC00500286","2000-10-17",44.96,33.98,0.00,0.00,0.00
"USC00500286","2000-10-18",46.04,33.08,0.00,0.00,0.00
"USC00500286","2000-10-19",44.96,30.02,0.00,0.00,0.00
"USC00500286","2000-10-20",46.04,24.08,0.00,0.00,0.00
"USC00500286","2000-10-21",39.02,30.02,0.00,0.00,0.00
"USC00500286","2000-10-22",35.96,30.02,0.00,0.00,0.00
"USC00500286","2000-10-23",37.94,28.94,18.00,0.00,0.00
"USC00500286","2000-10-24",42.08,32.00,0.00,0.00,0.00
"USC00500286","2000-10-25",48.02,33.98,0.00,0.00,0.00
"USC00500286","2000-10-26",42.98,28.04,0.00,0.00,0.00
"USC00500286","2000-10-27",37.94,21.02,0.00,0.00,0.00
"USC00500286","2000-10-28",32.00,24.98,0.00,0.00,0.00
"USC00500286","2000-10-29",30.92,17.06,0.00,0.00,0.00
"USC00500286","2000-10-30",33.08,24.98,0.00,0.00,0.00
"USC00500286","2000-10-31",33.98,30.02,,3.00,
"USC00500286","2000-11-01",33.98,21.92,0.00,0.00,
"USC00500286","2000-11-02",33.98,19.94,0.00,0.00,
"USC00500286","2000-11-03",21.92,19.94,0.00,0.00,
"USC00500286","2000-11-04",24.98,17.06,0.00,0.00,
"USC00500286","2000-11-05",30.92,24.08,0.00,0.00,
"USC00500286","2000-11-06",30.92,21.92,0.00,0.00,
"USC00500286","2000-11-07",26.96,23.00,0.00,0.00,
"USC00500286","2000-11-08",19.04,28.04,0.00,0.00,
"USC00500286","2000-11-09",32.00,28.04,0.00,0.00,
"USC00500286","2000-11-10",42.08,32.00,0.00,0.00,
"USC00500286","2000-11-11",50.00,37.94,69.00,0.00,
"USC00500286","2000-11-12",39.92,28.04,0.00,0.00,0.00
"USC00500286","2000-11-13",33.08,26.96,0.00,0.00,0.00
"USC00500286","2000-11-14",44.06,33.08,0.00,0.00,0.00
"USC00500286","2000-11-15",35.96,24.08,0.00,0.00,0.00
"USC00500286","2000-11-16",33.08,24.98,0.00,0.00,0.00
"USC00500286","2000-11-17",46.04,24.08,0.00,0.00,0.00
"USC00500286","2000-11-18",46.04,24.08,0.00,0.00,0.00
"USC00500286","2000-11-19",35.96,32.00,0.00,0.00,0.00
"USC00500286","2000-11-20",37.04,33.08,0.00,0.00,0.00
"USC00500286","2000-11-21",46.94,30.02,0.00,0.00,0.00
"USC00500286","2000-11-22",41.00,30.02,0.00,0.00,0.00
"USC00500286","2000-11-23",39.02,26.06,0.00,0.00,0.00
"USC00500286","2000-11-24",26.96,23.00,0.00,0.00,0.00
"USC00500286","2000-11-25",32.00,23.00,0.00,0.00,0.00
"USC00500286","2000-11-26",28.94,15.08,0.00,0.00,0.00
"USC00500286","2000-11-27",28.04,21.02,0.00,0.00,0.00
"USC00500286","2000-11-28",35.06,23.00,0.00,0.00,0.00
"USC00500286","2000-11-29",44.06,30.02,36.00,5.00,0.00
"USC00500286","2000-11-30",30.92,21.02,53.00,46.00,
"USC00500286","2000-12-01",21.92,10.94,0.00,,
"USC00500286","2000-12-02",12.92,6.08,0.00,,
"USC00500286","2000-12-03",17.06,6.08,0.00,,
"USC00500286","2000-12-04",24.08,15.98,0.00,,
"USC00500286","2000-12-05",35.06,24.08,0.00,,
"USC00500286","2000-12-06",41.00,10.04,0.00,,
"USC00500286","2000-12-07",37.94,10.04,0.00,,
"USC00500286","2000-12-08",33.08,28.04,0.00,,
"USC00500286","2000-12-09",28.04,19.94,0.00,,
"USC00500286","2000-12-10",24.08,17.06,0.00,,
"USC00500286","2000-12-11",44.06,23.00,0.00,,
"USC00500286","2000-12-12",33.98,10.04,0.00,,
"USC00500286","2000-12-13",28.94,10.04,0.00,,
"USC00500286","2000-12-14",28.04,10.04,0.00,,
"USC00500286","2000-12-15",28.04,10.04,0.00,,
"USC00500286","2000-12-16",21.02,14.00,0.00,,
"USC00500286","2000-12-17",21.92,14.00,0.00,,
"USC00500286","2000-12-18",30.02,10.04,0.00,,
"USC00500286","2000-12-19",33.98,10.04,0.00,,
"USC00500286","2000-12-20",39.02,10.04,0.00,,
"USC00500286","2000-12-21",42.98,19.94,0.00,,
"USC00500286","2000-12-22",17.96,15.98,0.00,,
"USC00500286","2000-12-23",21.92,14.00,0.00,,
"USC00500286","2000-12-24",26.06,21.92,0.00,,
"USC00500286","2000-12-25",28.04,21.02,0.00,,
"USC00500286","2000-12-26",30.02,24.08,0.00,,
"USC00500286","2000-12-27",26.06,21.92,0.00,,
"USC00500286","2000-12-28",30.92,21.02,0.00,,
"USC00500286","2000-12-29",35.96,28.04,0.00,,
"USC00500286","2000-12-30",46.04,30.92,0.00,,
"USC00500286","2000-12-31",35.96,28.04,0.00,,
"USC00500286","2001-01-01",35.06,19.94,0.00,0.00,0.00
"USC00500286","2001-01-02",23.00,15.08,0.00,0.00,0.00
"USC00500286","2001-01-03",24.98,19.04,0.00,0.00,0.00
"USC00500286","2001-01-04",28.04,17.96,127.00,,102.00
"USC00500286","2001-01-05",23.00,8.96,,0.00,102.00
"USC00500286","2001-01-06",21.92,8.06,0.00,0.00,102.00
"USC00500286","2001-01-07",44.06,21.02,0.00,0.00,76.00
"USC00500286","2001-01-08",48.02,28.94,,0.00,76.00
"USC00500286","2001-01-09",37.04,26.06,229.00,58.00,127.00
"USC00500286","2001-01-10",37.94,28.94,0.00,0.00,127.00
"USC00500286","2001-01-11",28.94,12.02,0.00,0.00,127.00
"USC00500286","2001-01-12",32.00,15.98,,0.00,127.00
"USC00500286","2001-01-13",44.06,26.96,0.00,0.00,127.00
"USC00500286","2001-01-14",33.08,33.08,0.00,0.00,102.00
"USC00500286","2001-01-15",46.94,26.96,,0.00,51.00
"USC00500286","2001-01-16",37.94,28.04,0.00,0.00,51.00
"USC00500286","2001-01-17",35.96,26.06,0.00,0.00,51.00
"USC00500286","2001-01-18",37.94,30.92,0.00,0.00,25.00
"USC00500286","2001-01-19",42.98,35.06,,0.00,25.00
"USC00500286","2001-01-20",44.06,30.92,0.00,0.00,25.00
"USC00500286","2001-01-21",37.04,28.94,0.00,0.00,25.00
"USC00500286","2001-01-22",37.04,28.94,0.00,0.00,25.00
"USC00500286","2001-01-23",35.96,30.02,25.00,64.00,102.00
"USC00500286","2001-01-24",35.06,26.06,,0.00,
"USC00500286","2001-01-25",,,0.00,0.00,
"USC00500286","2001-01-26",42.08,26.06,0.00,0.00,
"USC00500286","2001-01-27",33.98,28.94,3.00,0.00,
"USC00500286","2001-01-28",,,0.00,0.00,
"USC00500286","2001-01-29",32.00,12.02,0.00,0.00,76.00
"USC00500286","2001-01-30",21.02,15.08,0.00,0.00,76.00
"USC00500286","2001-01-31",30.02,19.94,0.00,0.00,51.00
"USC00500286","2001-02-01",30.92,28.04,56.00,157.00,203.00
"USC00500286","2001-02-02",33.98,15.98,,0.00,203.00
"USC00500286","2001-02-03",21.92,19.94,0.00,0.00,203.00
"USC00500286","2001-02-04",33.08,19.04,,0.00,178.00
"USC00500286","2001-02-05",24.98,12.02,0.00,0.00,178.00
"USC00500286","2001-02-06",28.04,24.08,0.00,0.00,178.00
"USC00500286","2001-02-07",30.02,12.92,,,305.00
"USC00500286","2001-02-08",30.02,14.00,38.00,127.00,305.00
"USC00500286","2001-02-09",28.04,12.92,0.00,0.00,279.00
"USC00500286","2001-02-10",28.04,15.08,,0.00,279.00
"USC00500286","2001-02-11",26.96,15.98,,25.00,305.00
"USC00500286","2001-02-12",28.94,24.08,48.00,165.00,457.00
"USC00500286","2001-02-13",32.00,19.94,0.00,0.00,457.00
"USC00500286","2001-02-14",30.92,8.96,0.00,0.00,457.00
"USC00500286","2001-02-15",24.08,17.96,0.00,0.00,432.00
"USC00500286","2001-02-16",24.98,10.04,0.00,0.00,432.00
"USC00500286","2001-02-17",26.96,12.02,0.00,0.00,406.00
"USC00500286","2001-02-18",21.92,12.92,0.00,0.00,381.00
"USC00500286","2001-02-19",23.00,12.02,0.00,0.00,381.00
"USC00500286","2001-02-20",24.08,12.02,0.00,0.00,330.00
"USC00500286","2001-02-21",32.00,8.06,0.00,0.00,330.00
"USC00500286","2001-02-22",26.06,23.00,0.00,0.00,305.00
"USC00500286","2001-02-23",28.04,12.92,0.00,0.00,279.00
"USC00500286","2001-02-24",26.96,10.04,0.00,0.00,279.00
"USC00500286","2001-02-25",26.06,8.06,0.00,0.00,279.00
"USC00500286","2001-02-26",42.08,19.04,0.00,0.00,254.00
"USC00500286","2001-02-27",32.00,19.94,0.00,0.00,254.00
"USC00500286","2001-02-28",33.08,21.02,0.00,0.00,229.00
"USC00500286","2001-03-01",46.04,24.08,,25.00,229.00
"USC00500286","2001-03-02",30.92,24.08,0.00,0.00,229.00
"USC00500286","2001-03-03",30.92,21.92,0.00,0.00,229.00
"USC00500286","2001-03-04",30.02,21.92,0.00,0.00,
"USC00500286","2001-03-05",39.92,21.92,0.00,0.00,
"USC00500286","2001-03-06",33.08,28.04,,25.00,178.00
"USC00500286","2001-03-07",42.08,28.94,127.00,,203.00
"USC00500286","2001-03-08",37.94,10.94,0.00,0.00,203.00
"USC00500286","2001-03-09",39.02,10.04,0.00,0.00,178.00
"USC00500286","2001-03-10",42.98,30.92,0.00,0.00,178.00
"USC00500286","2001-03-11",42.98,33.98,0.00,0.00,152.00
"USC00500286","2001-03-12",41.00,24.08,0.00,0.00,127.00
"USC00500286","2001-03-13",41.00,26.96,0.00,0.00,127.00
"USC00500286","2001-03-14",42.08,28.94,0.00,0.00,127.00
"USC00500286","2001-03-15",42.08,24.08,0.00,0.00,127.00
"USC00500286","2001-03-16",41.00,23.00,0.00,0.00,102.00
"USC00500286","2001-03-17",39.92,24.08,0.00,0.00,102.00
"USC00500286","2001-03-18",42.08,19.04,0.00,0.00,
"USC00500286","2001-03-19",30.92,10.04,0.00,0.00,51.00
"USC00500286","2001-03-20",26.96,15.98,0.00,0.00,51.00
"USC00500286","2001-03-21",28.04,15.98,0.00,0.00,51.00
"USC00500286","2001-03-22",28.04,10.04,0.00,0.00,51.00
"USC00500286","2001-03-23",23.00,15.08,0.00,0.00,51.00
"USC00500286","2001-03-24",30.02,17.96,0.00,0.00,51.00
"USC00500286","2001-03-25",33.08,24.08,0.00,0.00,51.00
"USC00500286","2001-03-26",37.94,28.94,0.00,0.00,25.00
"USC00500286","2001-03-27",42.08,30.02,0.00,0.00,25.00
"USC00500286","2001-03-28",44.06,30.02,0.00,0.00,25.00
"USC00500286","2001-03-29",42.08,30.02,,3.00,25.00
"USC00500286","2001-03-30",32.00,26.06,,89.00,102.00
"USC00500286","2001-03-31",33.98,23.00,0.00,0.00,51.00
"USC00500286","2001-04-01",35.06,15.08,0.00,0.00,25.00
"USC00500286","2001-04-02",33.08,21.92,0.00,0.00,25.00
"USC00500286","2001-04-03",44.06,32.00,0.00,0.00,0.00
"USC00500286","2001-04-04",42.98,32.00,0.00,0.00,0.00
"USC00500286","2001-04-05",39.02,24.08,0.00,0.00,0.00
"USC00500286","2001-04-06",37.94,26.06,0.00,0.00,0.00
"USC00500286","2001-04-07",42.08,30.92,0.00,0.00,0.00
"USC00500286","2001-04-08",39.92,33.08,0.00,0.00,0.00
"USC00500286","2001-04-09",44.06,26.96,0.00,0.00,0.00
"USC00500286","2001-04-10",44.06,33.98,0.00,0.00,0.00
"USC00500286","2001-04-11",46.94,33.98,0.00,0.00,0.00
"USC00500286","2001-04-12",50.00,33.08,0.00,0.00,0.00
"USC00500286","2001-04-13",46.04,32.00,0.00,0.00,0.00
"USC00500286","2001-04-14",46.94,26.96,0.00,0.00,0.00
"USC00500286","2001-04-15",46.04,30.92,0.00,0.00,0.00
"USC00500286","2001-04-16",42.98,30.02,0.00,0.00,0.00
"USC00500286","2001-04-17",44.96,33.98,0.00,0.00,0.00
"USC00500286","2001-04-18",44.06,33.08,0.00,0.00,0.00
"USC00500286","2001-04-19",48.02,30.92,0.00,0.00,0.00
"USC00500286","2001-04-20",51.98,30.92,0.00,0.00,0.00
"USC00500286","2001-04-21",53.06,33.08,0.00,0.00,0.00
"USC00500286","2001-04-22",51.98,37.04,0.00,0.00,0.00
"USC00500286","2001-04-23",53.06,32.00,0.00,0.00,0.00
"USC00500286","2001-04-24",50.00,30.92,0.00,0.00,0.00
"USC00500286","2001-04-25",53.96,35.96,0.00,0.00,0.00
"USC00500286","2001-04-26",53.06,37.04,0.00,0.00,0.00
"USC00500286","2001-04-27",53.06,35.96,0.00,0.00,0.00
"USC00500286","2001-04-28",51.98,37.04,0.00,0.00,0.00
"USC00500286","2001-04-29",50.00,33.98,0.00,0.00,0.00
"USC00500286","2001-04-30",57.02,37.04,0.00,0.00,0.00
"USC00500286","2001-05-01",57.02,35.06,0.00,0.00,0.00
"USC00500286","2001-05-02",39.02,35.06,0.00,0.00,0.00
"USC00500286","2001-05-03",39.02,24.08,,,51.00
"USC00500286","2001-05-04",32.00,26.06,,,102.00
"USC00500286","2001-05-05",37.94,28.04,0.00,0.00,0.00
"USC00500286","2001-05-06",46.04,33.08,0.00,0.00,0.00
"USC00500286","2001-05-07",44.06,33.08,0.00,0.00,0.00
"USC00500286","2001-05-08",48.92,39.02,0.00,0.00,0.00
"USC00500286","2001-05-09",50.00,33.98,0.00,0.00,0.00
"USC00500286","2001-05-10",48.92,35.96,0.00,0.00,0.00
"USC00500286","2001-05-11",51.98,33.98,0.00,0.00,0.00
"USC00500286","2001-05-12",57.02,39.02,0.00,0.00,0.00
"USC00500286","2001-05-13",55.94,35.96,0.00,0.00,0.00
"USC00500286","2001-05-14",62.06,39.02,0.00,0.00,0.00
"USC00500286","2001-05-15",60.98,48.02,0.00,0.00,0.00
"USC00500286","2001-05-16",57.02,42.98,,,25.00
"USC00500286","2001-05-17",53.06,35.06,0.00,0.00,0.00
"USC00500286","2001-05-18",57.92,44.96,0.00,0.00,0.00
"USC00500286","2001-05-19",55.04,42.98,0.00,0.00,0.00
"USC00500286","2001-05-20",60.98,42.08,0.00,0.00,0.00
"USC00500286","2001-05-21",55.04,39.92,0.00,0.00,0.00
"USC00500286","2001-05-22",50.00,42.08,0.00,0.00,0.00
"USC00500286","2001-05-23",55.94,44.96,0.00,0.00,0.00
"USC00500286","2001-05-24",53.96,42.08,,,0.00
"USC00500286","2001-05-25",55.04,42.08,0.00,0.00,0.00
"USC00500286","2001-05-26",53.06,39.92,0.00,0.00,0.00
"USC00500286","2001-05-27",69.08,37.94,0.00,0.00,0.00
"USC00500286","2001-05-28",69.98,44.06,0.00,0.00,0.00
"USC00500286","2001-05-29",69.98,51.98,0.00,0.00,0.00
"USC00500286","2001-05-30",66.92,44.96,0.00,0.00,0.00
"USC00500286","2001-05-31",59.00,44.06,0.00,0.00,0.00
"USC00500286","2001-06-01",66.02,48.92,0.00,0.00,0.00
"USC00500286","2001-06-02",69.98,50.00,0.00,0.00,0.00
"USC00500286","2001-06-03",73.94,55.04,0.00,0.00,0.00
"USC00500286","2001-06-04",64.94,48.02,0.00,0.00,0.00
"USC00500286","2001-06-05",64.94,48.92,0.00,0.00,0.00
"USC00500286","2001-06-06",62.06,48.92,64.00,0.00,0.00
"USC00500286","2001-06-07",53.96,46.04,0.00,0.00,0.00
"USC00500286","2001-06-08",64.04,42.08,0.00,0.00,0.00
"USC00500286","2001-06-09",64.94,46.94,0.00,0.00,0.00
"USC00500286","2001-06-10",69.98,51.08,0.00,0.00,0.00
"USC00500286","2001-06-11",69.98,55.04,5.00,0.00,0.00
"USC00500286","2001-06-12",57.92,50.00,0.00,0.00,0.00
"USC00500286","2001-06-13",57.92,57.02,0.00,0.00,0.00
"USC00500286","2001-06-14",60.98,48.92,0.00,0.00,0.00
"USC00500286","2001-06-15",69.08,50.00,0.00,0.00,0.00
"USC00500286","2001-06-16",75.02,51.08,0.00,0.00,0.00
"USC00500286","2001-06-17",73.94,53.06,0.00,0.00,0.00
"USC00500286","2001-06-18",66.02,48.92,0.00,0.00,0.00
"USC00500286","2001-06-19",66.02,48.92,0.00,0.00,0.00
"USC00500286","2001-06-20",66.92,48.92,0.00,0.00,0.00
"USC00500286","2001-06-21",71.96,64.94,0.00,0.00,0.00
"USC00500286","2001-06-22",68.00,50.00,0.00,0.00,0.00
"USC00500286","2001-06-23",71.06,50.00,0.00,0.00,0.00
"USC00500286","2001-06-24",73.94,50.00,0.00,0.00,0.00
"USC00500286","2001-06-25",73.94,53.96,0.00,0.00,0.00
"USC00500286","2001-06-26",78.08,60.08,0.00,0.00,0.00
"USC00500286","2001-06-27",73.94,57.92,0.00,0.00,0.00
"USC00500286","2001-06-28",77.00,55.04,0.00,0.00,0.00
"USC00500286","2001-06-29",77.00,55.04,0.00,0.00,0.00
"USC00500286","2001-06-30",77.00,53.06,0.00,0.00,0.00
"USC00500286","2001-07-01",64.94,51.98,0.00,0.00,0.00
"USC00500286","2001-07-02",66.02,51.98,0.00,0.00,0.00
"USC00500286","2001-07-03",66.92,51.98,0.00,0.00,0.00
"USC00500286","2001-07-04",55.94,48.92,0.00,0.00,0.00
"USC00500286","2001-07-05",60.08,48.92,427.00,0.00,0.00
"USC00500286","2001-07-06",62.06,48.92,76.00,0.00,0.00
"USC00500286","2001-07-07",66.92,55.94,0.00,0.00,0.00
"USC00500286","2001-07-08",68.00,51.08,0.00,0.00,0.00
"USC00500286","2001-07-09",59.00,51.98,0.00,0.00,0.00
"USC00500286","2001-07-10",64.94,51.08,0.00,0.00,0.00
"USC00500286","2001-07-11",62.06,50.00,0.00,0.00,0.00
"USC00500286","2001-07-12",62.06,50.00,0.00,0.00,0.00
"USC00500286","2001-07-13",59.00,50.00,10.00,0.00,0.00
"USC00500286","2001-07-14",62.06,53.06,0.00,0.00,0.00
"USC00500286","2001-07-15",66.02,53.06,0.00,0.00,0.00
"USC00500286","2001-07-16",60.08,55.04,8.00,0.00,0.00
"USC00500286","2001-07-17",64.94,55.04,0.00,0.00,0.00
"USC00500286","2001-07-18",66.92,55.04,0.00,0.00,0.00
"USC00500286","2001-07-19",71.06,57.92,0.00,0.00,0.00
"USC00500286","2001-07-20",71.06,57.02,61.00,0.00,0.00
"USC00500286","2001-07-21",66.92,53.96,0.00,0.00,0.00
"USC00500286","2001-07-22",66.92,59.00,25.00,0.00,0.00
"USC00500286","2001-07-23",66.92,53.96,3.00,0.00,0.00
"USC00500286","2001-07-24",60.98,55.04,0.00,0.00,0.00
"USC00500286","2001-07-25",66.02,55.04,0.00,0.00,0.00
"USC00500286","2001-07-26",66.92,55.94,0.00,0.00,0.00
"USC00500286","2001-07-27",68.00,57.02,0.00,0.00,0.00
"USC00500286","2001-07-28",69.08,51.98,0.00,0.00,0.00
"USC00500286","2001-07-29",64.04,55.94,0.00,0.00,0.00
"USC00500286","2001-07-30",66.92,55.04,10.00,0.00,0.00
"USC00500286","2001-07-31",62.06,53.96,5.00,0.00,0.00
"USC00500286","2001-08-01",64.94,55.04,0.00,0.00,0.00
"USC00500286","2001-08-02",71.06,53.96,0.00,0.00,0.00
"USC00500286","2001-08-03",71.96,55.94,145.00,0.00,0.00
"USC00500286","2001-08-04",57.92,51.08,145.00,0.00,0.00
"USC00500286","2001-08-05",66.92,48.92,0.00,0.00,0.00
"USC00500286","2001-08-06",62.06,48.92,0.00,0.00,0.00
"USC00500286","2001-08-07",71.06,53.06,0.00,0.00,0.00
"USC00500286","2001-08-08",71.96,55.94,0.00,0.00,0.00
"USC00500286","2001-08-09",66.92,55.94,0.00,0.00,0.00
"USC00500286","2001-08-10",68.00,55.94,0.00,0.00,0.00
"USC00500286","2001-08-11",66.02,55.04,0.00,0.00,0.00
"USC00500286","2001-08-12",69.98,60.08,0.00,0.00,0.00
"USC00500286","2001-08-13",71.96,53.96,0.00,0.00,0.00
"USC00500286","2001-08-14",77.00,64.04,3.00,0.00,0.00
"USC00500286","2001-08-15",69.08,55.94,0.00,0.00,0.00
"USC00500286","2001-08-16",69.08,55.94,3.00,0.00,0.00
"USC00500286","2001-08-17",64.04,55.04,23.00,0.00,0.00
"USC00500286","2001-08-18",64.04,55.04,64.00,0.00,0.00
"USC00500286","2001-08-19",64.94,53.96,0.00,0.00,0.00
"USC00500286","2001-08-20",60.08,51.98,13.00,0.00,0.00
"USC00500286","2001-08-21",71.06,51.98,0.00,0.00,0.00
"USC00500286","2001-08-22",75.92,48.92,0.00,0.00,0.00
"USC00500286","2001-08-23",71.06,50.00,0.00,0.00,0.00
"USC00500286","2001-08-24",71.96,48.92,8.00,0.00,0.00
"USC00500286","2001-08-25",62.96,46.94,0.00,0.00,0.00
"USC00500286","2001-08-26",69.08,51.08,0.00,0.00,0.00
"USC00500286","2001-08-27",64.94,48.02,0.00,0.00,0.00
"USC00500286","2001-08-28",66.92,53.06,0.00,0.00,0.00
"USC00500286","2001-08-29",55.94,50.00,0.00,0.00,0.00
"USC00500286","2001-08-30",57.92,48.92,0.00,0.00,0.00
"USC00500286","2001-08-31",57.92,46.94,0.00,0.00,0.00
"USC00500286","2001-09-01",62.06,46.04,0.00,0.00,0.00
"USC00500286","2001-09-02",57.92,48.92,30.00,0.00,0.00
"USC00500286","2001-09-03",57.92,51.08,89.00,0.00,0.00
"USC00500286","2001-09-04",64.94,53.96,3.00,0.00,0.00
"USC00500286","2001-09-05",55.04,46.94,84.00,0.00,0.00
"USC00500286","2001-09-06",60.08,46.94,0.00,0.00,0.00
"USC00500286","2001-09-07",59.00,44.06,13.00,0.00,0.00
"USC00500286","2001-09-08",57.02,37.94,3.00,0.00,0.00
"USC00500286","2001-09-09",60.08,37.94,0.00,0.00,0.00
"USC00500286","2001-09-10",62.96,37.04,0.00,0.00,0.00
"USC00500286","2001-09-11",64.04,37.94,0.00,0.00,0.00
"USC00500286","2001-09-12",62.06,44.96,0.00,0.00,0.00
"USC00500286","2001-09-13",55.04,42.98,15.00,0.00,0.00
"USC00500286","2001-09-14",55.94,46.04,15.00,0.00,0.00
"USC00500286","2001-09-15",57.02,42.98,0.00,0.00,0.00
"USC00500286","2001-09-16",62.06,42.08,0.00,0.00,0.00
"USC00500286","2001-09-17",60.08,48.92,10.00,0.00,0.00
"USC00500286","2001-09-18",62.96,51.98,8.00,0.00,0.00
"USC00500286","2001-09-19",57.02,50.00,15.00,0.00,0.00
"USC00500286","2001-09-20",55.94,48.02,0.00,0.00,0.00
"USC00500286","2001-09-21",64.04,37.04,0.00,0.00,0.00
"USC00500286","2001-09-22",60.08,37.04,0.00,0.00,0.00
"USC00500286","2001-09-23",57.02,44.06,0.00,0.00,0.00
"USC00500286","2001-09-24",51.98,42.08,0.00,0.00,0.00
"USC00500286","2001-09-25",53.96,39.02,0.00,0.00,0.00
"USC00500286","2001-09-26",55.04,37.04,0.00,0.00,0.00
"USC00500286","2001-09-27",55.94,33.98,0.00,0.00,0.00
"USC00500286","2001-09-28",53.96,41.00,0.00,0.00,0.00
"USC00500286","2001-09-29",50.00,37.94,0.00,0.00,0.00
"USC00500286","2001-09-30",55.94,35.96,0.00,0.00,0.00
"USC00500286","2001-10-01",55.04,46.04,3.00,0.00,0.00
"USC00500286","2001-10-02",53.96,44.06,15.00,0.00,0.00
"USC00500286","2001-10-03",55.94,37.94,0.00,0.00,0.00
"USC00500286","2001-10-04",44.96,39.92,38.00,0.00,0.00
"USC00500286","2001-10-05",51.98,44.96,3.00,0.00,0.00
"USC00500286","2001-10-06",48.92,44.06,33.00,0.00,0.00
"USC00500286","2001-10-07",53.96,35.06,13.00,0.00,0.00
"USC00500286","2001-10-08",53.96,33.08,18.00,0.00,0.00
"USC00500286","2001-10-09",44.06,35.96,0.00,0.00,0.00
"USC00500286","2001-10-10",44.96,39.02,51.00,0.00,0.00
"USC00500286","2001-10-11",44.96,28.04,5.00,0.00,0.00
"USC00500286","2001-10-12",44.96,28.04,3.00,0.00,0.00
"USC00500286","2001-10-13",44.96,19.04,0.00,0.00,0.00
"USC00500286","2001-10-14",44.96,19.04,0.00,0.00,0.00
"USC00500286","2001-10-15",35.06,19.04,0.00,0.00,0.00
"USC00500286","2001-10-16",42.08,26.06,0.00,0.00,0.00
"USC00500286","2001-10-17",37.94,30.02,76.00,102.00,102.00
"USC00500286","2001-10-18",33.98,28.94,46.00,51.00,152.00
"USC00500286","2001-10-19",32.00,24.08,5.00,5.00,152.00
"USC00500286","2001-10-20",32.00,19.94,38.00,51.00,203.00
"USC00500286","2001-10-21",30.92,24.08,64.00,76.00,254.00
"USC00500286","2001-10-22",28.04,24.98,5.00,5.00,254.00
"USC00500286","2001-10-23",28.94,19.94,0.00,0.00,229.00
"USC00500286","2001-10-24",28.94,15.98,0.00,0.00,229.00
"USC00500286","2001-10-25",24.08,8.96,0.00,0.00,229.00
"USC00500286","2001-10-26",26.06,6.98,0.00,0.00,229.00
"USC00500286","2001-10-27",17.06,6.98,0.00,0.00,229.00
"USC00500286","2001-10-28",24.98,15.08,0.00,0.00,203.00
"USC00500286","2001-10-29",26.06,15.98,0.00,0.00,203.00
"USC00500286","2001-10-30",26.96,10.94,0.00,0.00,203.00
"USC00500286","2001-10-31",24.08,12.92,0.00,0.00,203.00
"USC00500286","2002-01-01",37.04,21.02,,,
"USC00500286","2002-01-03",32.00,26.06,,,
"USC00500286","2002-01-04",35.06,26.96,,,
"USC00500286","2002-01-05",32.00,24.98,,,
"USC00500286","2002-01-06",33.08,28.94,,,
"USC00500286","2002-01-07",35.06,28.94,,,
"USC00500286","2002-01-08",46.04,26.06,,,
"USC00500286","2002-01-09",42.98,30.92,,,
"USC00500286","2002-01-12",24.98,21.92,,,
"USC00500286","2002-01-13",21.92,17.96,,,
"USC00500286","2002-01-14",46.04,21.02,,,
"USC00500286","2002-01-15",46.04,33.08,,,
"USC00500286","2002-01-16",35.06,28.04,,,
"USC00500286","2002-01-17",33.08,28.94,,,
"USC00500286","2002-01-18",35.06,26.96,,,
"USC00500286","2002-01-19",35.06,26.06,,,
"USC00500286","2002-01-20",28.04,24.08,,,
"USC00500286","2002-01-21",24.08,6.98,,,
"USC00500286","2002-01-22",17.06,1.04,,,
"USC00500286","2002-01-23",15.08,3.92,,,
"USC00500286","2002-01-24",15.98,-0.94,,,
"USC00500286","2002-01-25",8.06,-0.94,,,
"USC00500286","2002-01-26",8.06,-7.06,,,
"USC00500286","2002-01-27",8.96,1.94,,,
"USC00500286","2002-01-28",17.96,1.94,,,
"USC00500286","2002-01-29",26.06,17.96,,,
"USC00500286","2002-01-30",28.94,19.94,,,
"USC00500286","2002-01-31",33.08,24.98,,,
"USC00500286","2002-02-01",28.94,19.94,,,
"USC00500286","2002-02-02",26.96,10.04,,,
"USC00500286","2002-02-03",23.00,12.02,,,
"USC00500286","2002-02-04",44.96,21.92,,,
"USC00500286","2002-02-05",39.92,26.06,,,
"USC00500286","2002-02-06",19.94,17.96,,,
"USC00500286","2002-02-07",26.96,17.96,,,305.00
"USC00500286","2002-02-08",28.94,15.98,,,
"USC00500286","2002-02-09",26.06,15.08,,,
"USC00500286","2002-02-10",28.04,14.00,,,
"USC00500286","2002-02-11",24.98,21.92,,,
"USC00500286","2002-02-12",30.92,17.06,,,
"USC00500286","2002-02-13",30.92,15.98,,,
"USC00500286","2002-02-14",39.92,21.02,,,
"USC00500286","2002-02-15",39.92,21.02,,,
"USC00500286","2002-02-16",26.96,19.04,,,
"USC00500286","2002-02-17",26.96,17.96,,,
"USC00500286","2002-02-18",24.98,12.92,,,
"USC00500286","2002-02-19",28.04,14.00,,,
"USC00500286","2002-02-20",26.06,-0.94,,,
"USC00500286","2002-02-21",17.96,-2.02,,,
"USC00500286","2002-02-22",15.08,1.94,,,
"USC00500286","2002-02-23",21.92,1.94,,,
"USC00500286","2002-02-24",30.92,10.94,,,
"USC00500286","2002-02-25",24.08,19.04,,,
"USC00500286","2002-02-26",37.94,24.08,,,
"USC00500286","2002-02-27",35.96,24.08,,,
"USC00500286","2002-02-28",42.08,30.02,,,
"USC00500286","2002-03-01",41.00,17.96,,,
"USC00500286","2002-03-02",42.08,19.94,,,
"USC00500286","2002-03-03",39.92,17.96,,,
"USC00500286","2002-03-04",26.96,8.96,,,
"USC00500286","2002-03-05",24.98,6.98,,,
"USC00500286","2002-03-06",28.94,3.02,,,
"USC00500286","2002-03-07",24.08,1.94,,,
"USC00500286","2002-03-11",32.00,3.92,,,
"USC00500286","2002-03-12",26.06,6.08,,,
"USC00500286","2002-03-13",26.96,3.92,,,
"USC00500286","2002-03-14",28.94,5.00,,,
"USC00500286","2002-03-15",30.02,5.00,,,
"USC00500286","2002-03-16",32.00,6.98,,,
"USC00500286","2002-03-17",33.98,8.06,,,